Grand Junction, CO

6:25 AM MST on December 10, 2019 (GMT -0700)
Walker

Weather History for KGJT - July, 2019

Change the Weather History Date:

Monday, July 22, 2019

  Actual Average Record
Temperature  
Mean Temperature 87 °F 79 °F  
Max Temperature 102 °F 93 °F 103 °F (1931)
Min Temperature 71 °F 64 °F 56 °F (1961)
Degree Days  
Heating Degree Days 0 0  
Month to date heating degree days 0 0  
Since 1 June heating degree days 25 22  
Since 1 July heating degree days 0 0  
Cooling Degree Days 22 14  
Month to date cooling degree days 332 292  
Year to date cooling degree days 544 574  
Since 1 June cooling degree days 532 523  
Growing Degree Days 37 (Base 50)    
Moisture  
Dew Point 40 °F    
Average Humidity 21    
Maximum Humidity 33    
Minimum Humidity 8    
Precipitation  
Precipitation 0.00 in 0.02 in 0.55 in (1985)
Month to date precipitation 0.07 0.39  
Year to date precipitation 6.67 4.68  
Snow  
Snow 0.00 in 0.00 in 0.00 in ()
Month to date snowfall 0.0 0.0  
Since 1 June snowfall 0.0 0.0  
Since 1 July snowfall 0.0 0.0  
Snow Depth 0.00 in    
Sea Level Pressure  
Sea Level Pressure 29.90 in    
Wind  
Wind Speed 11 mph (ESE)    
Max Wind Speed 22 mph    
Max Gust Speed 29 mph    
Visibility 10 miles    
Events      
T = Trace of Precipitation, MM = Missing Value Source: NWS Daily Summary

Daily Weather History Graph

Daily Weather History Graph

Search for Another Location

Airport or City:

Astronomy

Jul. 22, 2019 Rise Set
Actual Time 6:05 AM MDT 8:34 PM MDT
Civil Twilight 5:35 AM MDT 9:05 PM MDT
Nautical Twilight 4:57 AM MDT 9:43 PM MDT
Astronomical Twilight 4:14 AM MDT 10:25 PM MDT
Moon 11:59 PM MDT (7/22) 11:23 AM MDT (7/22)
Length of Visible Light 15h 30m
Length of Day
14h 29m
Waning Gibbous, 72% of the Moon is Illuminated
Jul 22
Waning Gibbous
Jul 24
Last Quarter
Jul 31
New
Aug 7
First Quarter
Aug 15
Full

Hourly Weather History & Observations

Time (MDT) Temp. Dew Point Humidity Pressure Visibility Wind Dir Wind Speed Gust Speed Precip Events Conditions
12:53 AM 75.0 °F 33.1 °F 22% 29.84 in 10.0 mi ESE 11.5 mph - N/A   Clear
1:53 AM 79.0 °F 39.9 °F 25% 29.84 in 10.0 mi East 13.8 mph - N/A   Clear
2:53 AM 73.9 °F 39.0 °F 28% 29.86 in 10.0 mi ESE 11.5 mph - N/A   Clear
3:53 AM 72.0 °F 37.0 °F 28% 29.87 in 10.0 mi SE 12.7 mph - N/A   Clear
4:53 AM 73.0 °F 41.0 °F 31% 29.88 in 10.0 mi East 13.8 mph - N/A   Clear
5:53 AM 73.0 °F 41.0 °F 31% 29.91 in 10.0 mi East 10.4 mph - N/A   Clear
6:53 AM 73.9 °F 42.1 °F 32% 29.93 in 10.0 mi ESE 6.9 mph - N/A   Clear
7:53 AM 79.0 °F 44.1 °F 29% 29.94 in 10.0 mi East 11.5 mph - N/A   Clear
8:53 AM 82.0 °F 45.0 °F 27% 29.96 in 10.0 mi ESE 16.1 mph - N/A   Clear
9:53 AM 84.0 °F 46.9 °F 27% 29.97 in 10.0 mi SE 15.0 mph - N/A   Clear
10:53 AM 90.0 °F 45.0 °F 21% 29.95 in 10.0 mi East 11.5 mph - N/A   Clear
11:53 AM 93.0 °F 46.0 °F 20% 29.93 in 10.0 mi ESE 10.4 mph - N/A   Clear
12:53 PM 96.1 °F 45.0 °F 17% 29.91 in 10.0 mi WSW 8.1 mph - N/A   Clear
1:53 PM 97.0 °F 41.0 °F 14% 29.89 in 10.0 mi West 6.9 mph - N/A   Clear
2:53 PM 97.0 °F 42.1 °F 15% 29.87 in 10.0 mi Variable 4.6 mph - N/A   Clear
3:53 PM 100.9 °F 28.9 °F 8% 29.86 in 10.0 mi Calm Calm - N/A   Clear
4:53 PM 99.0 °F 30.0 °F 9% 29.84 in 10.0 mi North - - N/A   Clear
5:53 PM 100.0 °F 34.0 °F 10% 29.83 in 10.0 mi West 12.7 mph - N/A   Clear
6:53 PM 97.0 °F 34.0 °F 11% 29.83 in 10.0 mi WNW 8.1 mph - N/A   Clear
7:22 PM 95.0 °F 41.0 °F 15% 30.08 in 10.0 mi ESE 17.3 mph 27.6 mph N/A   Clear
7:53 PM 93.0 °F 41.0 °F 16% 29.84 in 10.0 mi ESE 19.6 mph 26.5 mph N/A   Clear
8:53 PM 88.0 °F 43.0 °F 21% 29.87 in 10.0 mi SSE 20.7 mph 28.8 mph N/A   Clear
9:53 PM 84.0 °F 39.9 °F 21% 29.91 in 10.0 mi ESE 10.4 mph - N/A   Clear
10:53 PM 82.9 °F 39.9 °F 22% 29.92 in 10.0 mi ESE 9.2 mph - N/A   Clear
11:53 PM 81.0 °F 42.1 °F 25% 29.94 in 10.0 mi ESE 9.2 mph - N/A   Clear